EHI
0 0 0 0 0 0 0 0 0 0 1 2 2 1 0 0 0 0 0 0 0 0 0 0 0 0 0 0 1 2 2 2 1 0 0 0 0 0 0 0 0 0 0
0 0 0 0 0 0 0 0 0 0 1 2 2 1 0 0 0 0 0 0 0 0 0 0 0 0 0 0 0 1 1 1 0 0 0 0 0 0 0 0 0 0 0
0 0 0 0 0 0 0 0 0 0 1 1 1 0 0 0 0 0 0 0 0 0 0 0 0 0 0 0 0 0 0 0 0 0 0 0 0 0 0 0 0 0 0
0 0 0 0 0 0 0 0 0 1 1 1 1 0 0 0 0 0 0 0 0 0 0 0 0 0 0 0 0 0 0 0 0 0 0 0 0 0 0 0 0 0 0
0 0 2 3 3 2 1 0 0 0 1 1 1 0 0 0 0 0 0 0 0 0 0 0 0 0 0 0 0 0 0 0 0 0 0 0 0 0 0 0 0 0 0
0 0 3 7 10 10 8 4 1 0 0 0 0 0 1 0 0 0 0 0 0 0 0 0 0 0 0 0 0 0 0 0 0 0 0 0 0 0 0 0 0 0 0
0 0 2 7 12 16 16 11 6 2 0 0 0 0 0 0 0 0 0 0 0 0 0 0 0 0 0 0 0 0 0 0 0 0 0 0 0 0 0 0 0 0 0
0 0 1 2 6 11 14 15 13 7 3 1 0 0 0 0 0 0 0 0 0 0 0 0 0 0 0 0 0 0 0 0 0 0 0 0 0 0 0 0 0 0 0
1 0 0 0 1 3 6 10 11 9 6 3 1 0 0 0 0 0 0 0 0 0 0 0 0 0 0 0 0 0 0 0 0 0 0 0 0 0 0 0 0 0 0
1 0 0 0 0 0 1 3 4 5 5 4 1 0 0 0 0 0 0 0 0 0 0 0 0 0 0 0 0 0 0 0 0 0 0 0 0 0 0 0 0 0 0
1 0 0 0 0 0 0 0 0 0 1 2 1 0 0 0 0 0 0 0 0 0 0 0 0 0 0 0 0 0 0 0 0 0 0 0 0 0 0 0 0 0 0
0 0 0 0 0 0 0 0 0 0 0 0 0 0 0 0 0 0 1 1 1 0 0 0 0 0 0 0 0 0 0 0 0 0 0 0 0 0 0 0 0 0 0
0 0 0 0 0 0 0 0 0 0 0 0 0 0 0 0 0 1 2 2 1 1 0 0 0 0 0 0 0 0 0 0 0 0 0 0 0 0 0 0 0 0 0
0 0 0 0 0 0 0 0 0 0 0 0 0 0 0 0 1 2 4 4 3 1 0 0 0 0 0 0 0 0 0 0 0 0 1 0 0 0 0 0 0 0 0
0 0 0 0 0 0 0 0 0 0 0 0 0 0 0 0 1 3 4 4 3 2 1 0 0 0 0 0 0 0 0 0 0 0 0 0 0 0 0 0 0 0 0
0 0 0 0 0 0 0 0 0 0 0 0 0 0 0 0 1 3 4 4 3 2 1 1 1 0 1 0 0 0 0 0 0 0 0 0 0 0 0 0 0 0 0
0 0 0 0 0 0 0 0 0 0 0 0 0 0 0 0 0 2 3 3 3 3 2 2 2 1 1 0 0 0 0 0 0 0 0 0 0 0 0 0 0 0 0
0 0 0 0 0 0 0 0 0 0 0 0 0 0 0 0 0 0 1 2 3 3 3 2 2 3 2 1 0 0 0 0 0 0 0 0 0 0 0 0 0 0 0
0 0 0 0 0 0 0 0 0 0 0 0 0 0 0 0 0 0 0 1 2 3 2 1 1 3 2 1 0 0 0 0 0 0 0 0 0 0 0 0 0 0 0
0 0 0 0 0 0 0 0 0 0 0 0 0 0 0 0 0 0 0 0 1 2 2 1 1 1 2 1 0 0 0 0 0 0 0 0 0 0 0 0 0 0 0
0 0 0 0 0 0 0 0 0 0 0 0 0 0 0 0 0 0 0 0 1 2 2 2 2 1 2 2 1 0 0 0 0 0 0 0 0 0 0 0 0 0 0
0 0 0 0 0 0 0 0 0 0 0 0 0 0 0 0 0 0 0 1 1 1 2 2 2 2 3 3 2 1 1 0 0 0 0 0 0 0 0 0 0 0 0
0 0 0 0 0 0 0 0 0 0 0 0 0 0 0 0 0 0 0 0 0 0 1 2 2 4 5 5 3 2 1 0 0 0 0 0 0 0 0 0 0 0 0
0 0 0 0 0 0 0 0 0 0 0 0 0 0 0 0 0 0 0 0 0 0 0 1 2 5 6 6 4 2 0 0 0 0 0 0 0 0 0 0 0 0 0
0 0 0 0 0 0 0 0 0 0 0 0 0 0 0 0 0 0 0 0 0 0 0 0 2 4 6 6 4 2 1 1 0 0 0 0 0 0 0 1 1 1 1
0 0 0 0 0 0 0 0 0 0 0 0 0 0 0 0 0 0 0 0 0 0 0 1 2 3 5 5 4 2 1 1 0 0 0 0 1 1 1 2 4 4 3
Wind_Speed
6 8 10 9 9 8 8 8 8 8 8 8 8 8 8 7 6 5 5 4 4 3 3 3 3 3 4 4 4 4 5 5 5 6 6 6 6 6 6 5 3 7 8
6 8 9 8 8 8 7 7 8 8 8 8 8 8 7 7 6 5 5 4 4 3 3 2 2 3 3 3 3 3 4 4 5 5 3 5 6 5 5 4 5 6 7
5 7 9 7 7 7 7 7 7 8 8 8 8 7 7 7 6 6 5 5 4 3 3 3 2 2 2 2 2 2 3 3 3 2 3 2 6 5 4 4 5 6 6
4 5 5 6 6 6 6 7 7 7 8 8 8 8 8 7 7 6 6 5 5 4 4 3 3 3 2 2 1 1 2 2 2 3 3 3 4 7 3 4 4 5 5
3 2 3 2 3 4 5 6 7 7 8 8 8 8 8 8 8 7 7 6 6 5 5 4 3 3 3 2 2 1 2 2 2 5 2 2 3 5 3 3 3 4 4
3 2 4 4 3 2 4 5 6 7 8 8 9 9 9 9 9 9 8 8 7 6 6 5 4 4 4 3 2 2 2 2 6 1 1 1 3 5 2 2 3 3 4
5 6 6 10 9 8 6 5 5 6 7 8 8 9 9 9 10 9 9 9 8 8 7 6 5 5 4 4 3 2 2 3 4 1 2 1 4 3 2 2 2 3 3
8 7 7 9 9 9 9 9 8 7 7 8 9 9 9 10 10 10 10 10 9 9 8 7 6 6 5 4 4 4 4 6 4 3 2 2 4 1 2 2 2 3 3
7 7 7 7 7 8 9 10 10 9 8 8 8 9 9 10 10 11 10 11 10 10 9 8 8 7 6 5 5 5 4 5 5 3 3 2 4 2 2 2 2 2 3
7 7 6 6 6 6 6 7 9 9 8 8 8 8 9 10 11 11 12 11 11 11 10 10 9 8 7 6 6 6 5 6 7 5 3 4 4 3 3 3 3 2 3
8 7 6 5 5 5 5 6 7 7 7 7 6 7 7 7 8 8 11 9 11 11 11 10 10 9 8 8 7 6 7 7 6 4 3 5 4 4 3 3 3 3 3
8 8 6 6 6 5 4 3 3 4 4 4 4 5 5 5 6 7 6 9 11 11 11 11 10 10 10 8 10 9 7 8 6 5 3 5 5 5 5 5 4 4 4
8 8 8 7 7 6 4 4 3 3 3 4 4 4 4 5 5 6 4 6 8 11 9 9 10 9 8 6 5 7 7 6 5 4 5 6 5 6 6 6 6 5 5
8 9 9 9 8 7 7 5 4 4 3 3 3 4 3 3 5 5 4 5 5 5 6 6 6 8 8 8 9 9 8 6 5 4 4 7 5 6 7 7 7 7 6
8 9 9 10 9 9 7 6 6 5 5 5 4 4 4 4 5 5 4 4 6 5 6 6 7 7 8 8 8 8 8 9 8 7 4 8 6 7 8 8 8 8 7
9 10 9 10 9 9 7 7 6 6 5 6 5 6 5 5 5 5 6 5 5 5 5 6 7 7 7 6 8 9 9 8 9 8 6 8 9 7 7 9 9 9 9
9 10 10 9 9 9 9 8 7 6 7 6 6 7 7 6 6 6 6 5 5 5 6 5 7 6 6 7 8 9 8 9 8 9 8 6 8 10 9 9 10 10 10
9 10 9 8 9 9 8 8 6 6 6 6 6 6 7 7 7 6 6 6 5 5 4 4 5 5 6 6 7 7 7 7 10 10 8 8 7 7 10 11 9 9 10
8 9 9 9 9 9 9 7 6 6 6 5 5 5 6 7 7 7 6 5 5 5 5 5 5 6 6 6 6 5 6 7 8 9 10 10 9 8 7 11 10 8 9
8 8 8 8 9 9 7 6 5 5 5 5 5 5 7 6 7 7 6 7 6 5 5 6 7 6 5 5 6 6 6 6 7 8 9 8 8 10 9 9 10 10 10
7 8 8 9 9 7 6 6 6 6 5 5 5 6 6 7 7 7 6 6 6 6 6 7 7 8 7 5 4 5 6 7 8 7 8 8 9 9 9 9 8 7 9
7 8 8 9 8 8 6 6 6 6 6 5 5 6 6 6 6 6 7 6 6 6 7 7 7 6 6 6 5 4 5 6 7 9 8 8 10 9 10 11 11 9 7
7 7 7 8 8 7 8 6 6 5 5 4 6 6 7 7 6 6 7 7 6 7 6 7 7 9 7 7 7 5 5 6 4 6 10 10 10 8 9 10 11 11 10
7 7 7 8 8 7 7 6 8 6 6 7 6 6 7 7 7 6 6 6 7 6 7 7 8 7 8 7 7 8 6 3 4 4 5 9 11 11 11 9 10 10 10
6 6 6 7 7 7 7 6 7 6 6 6 6 8 7 6 7 6 6 6 6 6 7 8 8 8 7 8 6 6 7 5 6 4 5 6 7 9 10 10 9 9 9
5 5 5 5 6 6 6 6 7 7 8 8 8 8 7 6 5 7 7 6 6 6 6 7 7 9 8 9 8 7 6 6 7 6 6 5 6 7 9 8 9 9 8
Wind_Direction
151 151 143 165 162 161 157 157 159 160 157 157 157 159 161 162 164 164 160 160 154 147 139 131 122 116 104 96 90 90 90 88 86 89 90 92 95 97 98 103 136 103 95
141 147 143 167 167 168 167 169 171 171 171 169 169 171 172 173 175 177 179 179 175 169 165 159 146 134 122 112 102 95 89 90 87 84 95 122 107 97 100 86 31 82 100
144 148 155 168 174 177 181 185 185 185 184 182 183 183 185 187 189 192 197 198 196 190 186 185 176 162 153 138 117 102 95 96 97 97 244 145 115 104 104 103 93 101 105
142 154 152 149 180 188 195 199 199 200 198 197 197 197 197 200 201 205 207 207 209 208 206 206 207 194 181 165 144 123 112 102 118 233 227 81 103 103 109 115 116 116 113
120 133 106 141 200 206 211 213 212 213 213 211 208 206 207 208 209 211 215 217 219 219 219 217 220 212 201 193 188 176 150 133 179 246 68 76 79 101 109 115 120 118 120
80 69 65 32 352 295 260 242 234 231 228 225 221 218 218 217 216 218 220 223 223 224 224 223 227 225 217 210 209 201 183 180 228 189 113 115 97 104 113 118 124 128 126
47 39 41 36 21 6 345 312 283 263 249 243 238 232 230 228 225 223 224 226 226 229 228 226 231 232 229 221 219 215 204 210 252 179 183 135 86 99 134 142 144 147 136
40 32 29 36 24 14 2 350 334 306 281 266 256 249 243 239 235 230 228 228 228 230 231 229 229 235 235 229 228 224 212 240 218 205 190 157 95 146 149 153 154 155 150
41 37 24 14 14 12 3 357 349 332 311 290 276 267 257 251 246 240 235 232 231 230 232 231 229 233 236 234 233 229 224 248 261 229 198 162 128 186 171 166 166 158 143
46 36 27 15 6 359 351 355 348 343 329 313 298 288 278 264 253 246 241 231 233 233 231 231 229 232 233 234 234 231 227 231 237 224 216 136 145 201 183 179 173 161 146
37 29 24 10 0 352 340 347 339 336 329 316 296 286 282 269 261 246 246 235 233 234 233 233 230 230 230 220 225 229 229 233 217 233 219 116 180 208 195 188 177 162 152
24 17 12 359 350 342 333 331 320 310 307 302 297 290 277 268 264 264 265 250 245 241 236 234 232 229 231 219 197 205 228 223 224 220 171 144 205 210 200 194 187 175 165
10 6 359 352 346 339 325 311 305 292 288 287 292 292 284 279 262 254 250 241 239 236 233 217 219 228 227 230 229 216 225 227 221 219 164 157 208 207 200 195 194 185 182
3 356 350 342 336 333 327 318 296 291 286 281 273 279 283 274 263 255 244 248 247 239 234 227 227 229 229 228 227 232 220 225 225 217 162 160 209 211 201 198 196 193 192
357 351 350 338 337 333 327 312 302 298 296 290 282 271 271 271 262 254 250 245 249 245 236 230 229 232 235 237 236 236 232 224 229 219 175 167 204 215 206 200 199 196 194
352 349 347 339 337 330 321 313 310 303 292 287 283 279 274 271 270 265 253 250 252 254 251 242 233 227 228 230 236 236 241 232 230 220 215 180 192 206 210 206 204 199 197
348 347 350 338 338 334 326 320 311 304 301 295 290 283 276 269 268 267 263 252 249 253 249 243 237 231 225 220 227 234 233 237 235 224 215 212 195 192 203 208 208 204 202
347 348 349 344 341 340 333 319 310 307 307 300 295 288 283 277 271 269 264 259 250 250 246 238 231 222 223 224 223 224 229 222 233 231 220 212 213 197 189 197 203 205 205
343 344 348 348 343 343 336 323 316 313 310 305 303 300 296 289 280 270 267 265 255 246 244 240 225 223 222 224 227 226 238 232 230 227 226 220 209 208 199 172 191 201 204
340 342 348 344 345 343 339 334 332 326 323 320 316 314 311 298 291 282 270 262 258 246 239 238 233 222 225 224 231 228 225 235 235 235 237 228 220 210 209 184 187 193 199
344 346 349 345 349 347 346 340 337 338 333 334 330 330 318 308 301 289 282 274 262 254 248 242 236 228 221 212 222 230 229 232 237 231 235 233 224 217 209 200 203 193 186
345 346 346 351 350 349 348 335 328 327 324 333 332 331 328 319 309 295 285 277 266 259 253 247 237 233 225 205 206 210 221 220 228 227 225 229 231 211 218 212 201 199 202
344 347 346 348 346 350 344 338 334 333 323 341 343 340 335 327 316 304 295 284 273 262 251 245 239 232 227 215 212 208 211 216 204 215 220 220 227 219 214 218 212 202 202
343 342 341 347 347 348 341 344 344 340 342 339 334 333 329 329 326 319 304 292 279 267 259 249 240 240 235 224 216 224 234 233 205 204 214 223 223 220 219 213 218 212 204
335 334 336 340 348 352 347 344 334 342 340 333 335 337 335 334 333 331 320 307 293 275 265 259 250 241 236 232 221 214 219 223 229 223 210 207 215 220 220 218 213 213 208
323 324 329 334 345 348 342 341 342 343 338 339 341 341 338 335 336 341 327 315 304 290 273 262 255 246 240 237 232 221 214 208 210 213 219 210 210 213 215 219 219 210 208